Change the Weather History Date:

Thursday, April 24, 2014

  Actual Average Record
Temperature  
Mean Temperature 50 °F 54 °F  
Max Temperature 62 °F 66 °F 90 °F (1960)
Min Temperature 38 °F 43 °F 29 °F (1989)
Degree Days  
Heating Degree Days 15 11  
Month to date heating degree days 335 351  
Since 1 July heating degree days 5562 5136  
Cooling Degree Days 0 0  
Month to date cooling degree days 9 0  
Year to date cooling degree days 9 0  
Moisture  
Dew Point 19 °F    
Average Humidity 37    
Maximum Humidity 57    
Minimum Humidity 17    
Precipitation  
Precipitation 0.00 in 0.11 in 2.00 in (1968)
Month to date precipitation 2.39 3.10  
Year to date precipitation 11.24 12.11  
Sea Level Pressure  
Sea Level Pressure 30.02 in    
Wind  
Wind Speed 12 mph (NW)    
Max Wind Speed 24 mph    
Max Gust Speed 35 mph    
Visibility 10 miles    
Events      
T = Trace of Precipitation, MM = Missing Value Source: NWS Daily Summary

Daily Weather History Graph

Daily Weather History Graph

Search for Another Location

Airport or City:

Trip Planner

Search our weather history database for the weather conditions in past years. The results will help you decide how hot, cold, wet, or windy it might be!

Date:

Astronomy

Apr. 24, 2014 Rise Set
Actual Time 6:12 AM EDT 7:52 PM EDT
Civil Twilight 5:43 AM EDT 8:21 PM EDT
Nautical Twilight 5:08 AM EDT 8:56 PM EDT
Astronomical Twilight 4:31 AM EDT 9:33 PM EDT
Moon 3:22 AM EDT (4/24) 3:04 PM EDT (4/24)
Length of Visible Light 14h 37m
Length of Day
13h 39m
Waning Crescent, 24% of the Moon is Illuminated
Apr 24
Waning Crescent
Apr 29
New
May 6
First Quarter
May 14
Full
May 21
Last Quarter

Hourly Weather History & Observations

Time (EDT) Temp. Windchill Dew Point Humidity Pressure Visibility Wind Dir Wind Speed Gust Speed Precip Events Conditions
12:54 AM 42.1 °F 38.4 °F 28.0 °F 58% 29.96 in 10.0 mi West 5.8 mph - N/A   Clear
1:54 AM 43.0 °F 36.8 °F 24.1 °F 47% 29.95 in 10.0 mi NW 11.5 mph - N/A   Clear
2:54 AM 43.0 °F 35.4 °F 21.0 °F 42% 29.95 in 10.0 mi NW 16.1 mph - N/A   Clear
3:54 AM 43.0 °F 36.0 °F 19.0 °F 38% 29.96 in 10.0 mi NNW 13.8 mph 24.2 mph N/A   Clear
4:54 AM 41.0 °F 34.3 °F 17.1 °F 38% 29.98 in 10.0 mi NW 11.5 mph - N/A   Clear
5:54 AM 39.0 °F 33.4 °F 17.1 °F 41% 30.01 in 10.0 mi West 8.1 mph - N/A   Clear
6:54 AM 39.9 °F 33.9 °F 18.0 °F 41% 30.04 in 10.0 mi West 9.2 mph - N/A   Clear
7:54 AM 43.0 °F 37.2 °F 18.0 °F 37% 30.06 in 10.0 mi WNW 10.4 mph - N/A   Clear
8:54 AM 45.0 °F 38.2 °F 18.0 °F 34% 30.09 in 10.0 mi NNW 15.0 mph 26.5 mph N/A   Clear
9:54 AM 48.0 °F - 19.0 °F 32% 30.07 in 10.0 mi NW 17.3 mph 31.1 mph N/A   Clear
10:54 AM 50.0 °F - 18.0 °F 28% 30.08 in 10.0 mi NW 17.3 mph 26.5 mph N/A   Clear
11:54 AM 54.0 °F - 19.9 °F 26% 30.07 in 10.0 mi NW 15.0 mph 26.5 mph N/A   Clear
12:54 PM 55.9 °F - 19.9 °F 25% 30.04 in 10.0 mi WNW 16.1 mph 25.3 mph N/A   Clear
1:54 PM 59.0 °F - 21.0 °F 23% 30.02 in 10.0 mi NW 24.2 mph 27.6 mph N/A   Clear
2:54 PM 60.1 °F - 19.0 °F 20% 30.01 in 10.0 mi NNW 18.4 mph 28.8 mph N/A   Clear
3:54 PM 61.0 °F - 19.0 °F 20% 29.99 in 10.0 mi NW 13.8 mph 25.3 mph N/A   Clear
4:54 PM 62.1 °F - 19.0 °F 19% 29.98 in 10.0 mi NW 17.3 mph 21.9 mph N/A   Clear
5:54 PM 62.1 °F - 17.1 °F 18% 29.98 in 10.0 mi WNW 13.8 mph - N/A   Clear
6:54 PM 60.1 °F - 18.0 °F 20% 29.99 in 10.0 mi NW 11.5 mph - N/A   Clear
7:54 PM 55.0 °F - 18.0 °F 23% 30.01 in 10.0 mi NW 8.1 mph - N/A   Clear
8:54 PM 54.0 °F - 16.0 °F 22% 30.03 in 10.0 mi North 6.9 mph - N/A   Clear
9:54 PM 52.0 °F - 17.1 °F 25% 30.04 in 10.0 mi Calm Calm - N/A   Clear
10:54 PM 50.0 °F - 17.1 °F 27% 30.05 in 10.0 mi WNW 4.6 mph - N/A   Clear
11:54 PM 48.9 °F - 17.1 °F 28% 30.05 in 10.0 mi Calm Calm - N/A   Clear